Warroad, MN

9:08 PM CST on February 18, 2018 (GMT -0600)
Warroad International-Carlson

Weather History for KRRT - December, 2012

Change the Weather History Date:

Friday, December 7, 2012

  Actual Average Record
Temperature  
Mean Temperature 11 °F -  
Max Temperature 19 °F 20 °F 46 °F (1952)
Min Temperature 1 °F 2 °F -25 °F (1976)
Degree Days  
Heating Degree Days 54    
Moisture  
Dew Point 4 °F    
Average Humidity 73    
Maximum Humidity 85    
Minimum Humidity 57    
Precipitation  
Precipitation 0.00 in - - ()
Sea Level Pressure  
Sea Level Pressure 30.05 in    
Wind  
Wind Speed 6 mph (NW)    
Max Wind Speed 13 mph    
Max Gust Speed 16 mph    
Visibility 9 miles    
Events Snow    
Averages and records for this station are not official NWS values.
T = Trace of Precipitation, MM = Missing Value Source: NWS Daily Summary

Daily Weather History Graph

Daily Weather History Graph

Search for Another Location

Airport or City:

Trip Planner

Search our weather history database for the weather conditions in past years. The results will help you decide how hot, cold, wet, or windy it might be!

Date:

Astronomy

Dec. 07, 2012 Rise Set
Actual Time 8:01 AM CST 4:24 PM CST
Civil Twilight 7:24 AM CST 5:01 PM CST
Nautical Twilight 6:44 AM CST 5:41 PM CST
Astronomical Twilight 6:06 AM CST 6:19 PM CST
Moon 12:52 AM CST (12/7) 12:48 PM CST (12/7)
Length of Visible Light 9h 36m
Length of Day
8h 22m
Last Quarter, 38% of the Moon is Illuminated
Dec 7
Last Quarter
Dec 13
New
Dec 19
First Quarter
Dec 28
Full
Jan 4
Last Quarter

Hourly Weather History & Observations

Time (CST) Temp. Windchill Dew Point Humidity Pressure Visibility Wind Dir Wind Speed Gust Speed Precip Events Conditions
12:14 AM 19.4 °F 9.5 °F 12.2 °F 74% 29.94 in 10.0 mi WNW 8.1 mph - N/A   Overcast
12:34 AM 17.6 °F 9.3 °F 12.2 °F 79% 29.95 in 10.0 mi West 5.8 mph - N/A   Overcast
12:54 AM 17.6 °F 5.0 °F 12.2 °F 79% 29.95 in 10.0 mi NW 11.5 mph - N/A   Overcast
1:14 AM 17.6 °F 5.0 °F 10.4 °F 73% 29.95 in 10.0 mi NW 11.5 mph 16.1 mph N/A   Overcast
1:34 AM 17.6 °F 6.4 °F 8.6 °F 68% 29.96 in 10.0 mi NW 9.2 mph - N/A   Overcast
1:54 AM 17.6 °F 8.2 °F 8.6 °F 68% 29.97 in 10.0 mi WNW 6.9 mph - N/A Snow Light Snow
2:14 AM 17.6 °F 7.3 °F 8.6 °F 68% 29.97 in 10.0 mi WNW 8.1 mph - N/A   Overcast
2:34 AM 17.6 °F 6.4 °F 8.6 °F 68% 29.97 in 10.0 mi WNW 9.2 mph - N/A   Overcast
2:54 AM 17.6 °F 7.3 °F 10.4 °F 73% 29.98 in 7.0 mi NW 8.1 mph - N/A Snow Light Snow
3:14 AM 15.8 °F 7.2 °F 10.4 °F 79% 29.97 in 10.0 mi NW 5.8 mph - N/A Snow Light Snow
3:34 AM 15.8 °F 3.4 °F 6.8 °F 68% 29.97 in 10.0 mi NW 10.4 mph - N/A   Overcast
3:54 AM 14.0 °F 3.9 °F 6.8 °F 73% 29.98 in 10.0 mi WNW 6.9 mph - N/A   Overcast
4:14 AM 12.2 °F 2.9 °F 6.8 °F 79% 29.98 in 10.0 mi WNW 5.8 mph - N/A   Mostly Cloudy
4:34 AM 12.2 °F 4.3 °F 5.0 °F 73% 29.99 in 10.0 mi WNW 4.6 mph - N/A   Clear
4:54 AM 12.2 °F 4.3 °F 5.0 °F 73% 29.99 in 10.0 mi WNW 4.6 mph - N/A   Clear
5:14 AM 10.4 °F 4.0 °F 3.2 °F 73% 29.99 in 10.0 mi WNW 3.5 mph - N/A   Clear
5:34 AM 10.4 °F 4.0 °F 3.2 °F 73% 30.00 in 10.0 mi WNW 3.5 mph - N/A   Clear
5:54 AM 10.4 °F 2.2 °F 3.2 °F 73% 30.01 in 10.0 mi West 4.6 mph - N/A   Clear
6:14 AM 10.4 °F 2.2 °F 3.2 °F 73% 30.01 in 10.0 mi West 4.6 mph - N/A Snow Light Snow
6:34 AM 10.4 °F 2.2 °F 3.2 °F 73% 30.01 in 7.0 mi West 4.6 mph - N/A Snow Light Snow
6:54 AM 10.4 °F 4.0 °F 5.0 °F 79% 30.01 in 7.0 mi West 3.5 mph - N/A Snow Light Snow
7:14 AM 10.4 °F - 6.8 °F 85% 30.02 in 7.0 mi Calm Calm - N/A Snow Light Snow
7:34 AM 12.2 °F - 6.8 °F 79% 30.02 in 7.0 mi Calm Calm - N/A Snow Light Snow
7:54 AM 12.2 °F 6.1 °F 6.8 °F 79% 30.03 in 7.0 mi WNW 3.5 mph - N/A Snow Light Snow
8:14 AM 12.2 °F - 6.8 °F 79% 30.04 in 7.0 mi Calm Calm - N/A Snow Light Snow
8:34 AM 12.2 °F - 8.6 °F 85% 30.04 in 2.5 mi Calm Calm - N/A Snow Light Snow
8:54 AM 12.2 °F 4.3 °F 8.6 °F 85% 30.05 in 2.0 mi NNW 4.6 mph - N/A Snow Light Snow
9:14 AM 12.2 °F 1.7 °F 8.6 °F 85% 30.06 in 2.5 mi NNW 6.9 mph - N/A Snow Light Snow
9:34 AM 12.2 °F 2.9 °F 8.6 °F 85% 30.06 in 1.5 mi NNW 5.8 mph - N/A Snow Light Snow
9:54 AM 12.2 °F 2.9 °F 8.6 °F 85% 30.08 in 1.8 mi NW 5.8 mph - N/A Snow Light Snow
10:14 AM 12.2 °F 1.7 °F 6.8 °F 79% 30.08 in 3.0 mi NW 6.9 mph - N/A Snow Light Snow
10:34 AM 12.2 °F -0.2 °F 6.8 °F 79% 30.09 in 7.0 mi NW 9.2 mph - N/A   Overcast
10:54 AM 12.2 °F -1.0 °F 6.8 °F 79% 30.09 in 10.0 mi NNW 10.4 mph - N/A   Mostly Cloudy
11:14 AM 12.2 °F -2.5 °F 5.0 °F 73% 30.09 in 10.0 mi NW 12.7 mph - N/A   Scattered Clouds
11:34 AM 12.2 °F 1.7 °F 5.0 °F 73% 30.08 in 10.0 mi NW 6.9 mph - N/A   Mostly Cloudy
11:54 AM 12.2 °F 1.7 °F 5.0 °F 73% 30.08 in 10.0 mi NNW 6.9 mph - N/A   Mostly Cloudy
12:14 PM 12.2 °F 2.9 °F 5.0 °F 73% 30.08 in 10.0 mi NW 5.8 mph - N/A   Scattered Clouds
12:34 PM 14.0 °F 2.9 °F 5.0 °F 67% 30.07 in 10.0 mi NW 8.1 mph - N/A   Mostly Cloudy
12:54 PM 14.0 °F 5.1 °F 5.0 °F 67% 30.07 in 10.0 mi NW 5.8 mph - N/A   Scattered Clouds
1:14 PM 14.0 °F 5.1 °F 5.0 °F 67% 30.06 in 10.0 mi NNW 5.8 mph - N/A   Clear
1:35 PM 15.8 °F 7.2 °F 3.2 °F 58% 30.06 in 10.0 mi NW 5.8 mph - N/A   Clear
1:54 PM 14.0 °F 3.9 °F 3.2 °F 62% 30.06 in 10.0 mi NW 6.9 mph - N/A   Clear
2:14 PM 15.8 °F 10.2 °F 3.2 °F 58% 30.06 in 10.0 mi NW 3.5 mph - N/A   Clear
2:35 PM 15.8 °F 8.6 °F 3.2 °F 58% 30.07 in 10.0 mi NW 4.6 mph - N/A   Clear
2:54 PM 15.8 °F 7.2 °F 3.2 °F 58% 30.07 in 10.0 mi WNW 5.8 mph - N/A   Clear
3:14 PM 14.0 °F 6.5 °F 3.2 °F 62% 30.08 in 10.0 mi WNW 4.6 mph - N/A   Clear
3:35 PM 14.0 °F 6.5 °F 3.2 °F 62% 30.08 in 10.0 mi West 4.6 mph - N/A   Clear
3:54 PM 14.0 °F 8.2 °F 1.4 °F 57% 30.08 in 10.0 mi West 3.5 mph - N/A   Clear
4:14 PM 12.2 °F - 1.4 °F 62% 30.08 in 10.0 mi Calm Calm - N/A   Clear
4:34 PM 12.2 °F - 1.4 °F 62% 30.08 in 10.0 mi Calm Calm - N/A   Clear
4:54 PM 10.4 °F - 1.4 °F 67% 30.08 in 10.0 mi Calm Calm - N/A   Clear
5:14 PM 10.4 °F - 1.4 °F 67% 30.08 in 10.0 mi Calm Calm - N/A   Clear
5:34 PM 10.4 °F - 1.4 °F 67% 30.08 in 10.0 mi Calm Calm - N/A   Clear
5:54 PM 8.6 °F 2.0 °F 1.4 °F 73% 30.09 in 10.0 mi NNW 3.5 mph - N/A   Clear
6:14 PM 8.6 °F 2.0 °F 1.4 °F 73% 30.09 in 10.0 mi NNW 3.5 mph - N/A   Clear
6:35 PM 8.6 °F 2.0 °F 1.4 °F 73% 30.09 in 10.0 mi NNW 3.5 mph - N/A   Clear
7:14 PM 8.6 °F 0.1 °F 1.4 °F 73% 30.09 in 10.0 mi NNW 4.6 mph - N/A   Clear
7:34 PM 6.8 °F -0.1 °F -0.4 °F 72% 30.09 in 10.0 mi NNW 3.5 mph - N/A   Clear
7:54 PM 6.8 °F -0.1 °F -0.4 °F 72% 30.09 in 10.0 mi NNW 3.5 mph - N/A   Clear
8:34 PM 5.0 °F -2.1 °F -0.4 °F 78% 30.09 in 10.0 mi NNW 3.5 mph - N/A   Clear
8:54 PM 5.0 °F - -0.4 °F 78% 30.09 in 10.0 mi Calm Calm - N/A   Clear
9:14 PM 5.0 °F -2.1 °F -0.4 °F 78% 30.09 in 10.0 mi NNW 3.5 mph - N/A   Clear
9:34 PM 3.2 °F -6.2 °F -0.4 °F 85% 30.09 in 10.0 mi NNW 4.6 mph - N/A   Clear
9:54 PM 3.2 °F - -2.2 °F 78% 30.09 in 10.0 mi Calm Calm - N/A   Clear
10:14 PM 3.2 °F - -2.2 °F 78% 30.09 in 10.0 mi Calm Calm - N/A   Clear
10:34 PM 3.2 °F - -2.2 °F 78% 30.09 in 10.0 mi Calm Calm - N/A   Clear
10:54 PM 3.2 °F -4.2 °F -2.2 °F 78% 30.08 in 10.0 mi North 3.5 mph - N/A   Clear
11:14 PM 3.2 °F -4.2 °F -2.2 °F 78% 30.08 in 10.0 mi North 3.5 mph - N/A   Clear
11:34 PM 3.2 °F - -2.2 °F 78% 30.08 in 10.0 mi Calm Calm - N/A   Clear
11:54 PM 1.4 °F - -2.2 °F 85% 30.08 in 10.0 mi Calm Calm - N/A   Clear